• In India
  • List of Countries
  • For 7 days
  • Water Temperature
  • Satellite Maps
  • Weather Map
  • Weather Widgets
  • user-avatar
    Login

    Hourly Weather Etchmiadzin

    Today, 18 January, Thursday

    Time Temperature Precipitation Wind Pressure Humidity
    00:00 -2°C° 0.1 mm 2 mps 682 mmHg 77%
    01:00 -2°C° 0.2 mm 2 mps 682 mmHg 78%
    02:00 -2°C° 0.2 mm 2 mps 682 mmHg 79%
    03:00 -1°C° 0 mm 2 mps 681 mmHg 85%
    04:00 -1°C° 0.4 mm 2 mps 681 mmHg 85%
    05:00 -1°C° 0.4 mm 2 mps 681 mmHg 86%
    06:00 -1°C° 0.4 mm 3 mps 680 mmHg 87%
    07:00 -1°C° 0.4 mm 3 mps 680 mmHg 86%
    08:00 0°C° 0.4 mm 3 mps 680 mmHg 86%
    09:00 -1°C° 0 mm 4 mps 680 mmHg 85%
    10:00 0°C° 0.7 mm 4 mps 680 mmHg 84%
    11:00 0°C° 0.7 mm 4 mps 679 mmHg 83%
    12:00 +1°C° 0.7 mm 4 mps 679 mmHg 82%
    13:00 +1°C° 0.3 mm 5 mps 678 mmHg 81%
    14:00 +2°C° 0.3 mm 5 mps 678 mmHg 79%
    15:00 +2°C° 0.3 mm 5 mps 677 mmHg 77%
    16:00 +2°C° 0.2 mm 5 mps 677 mmHg 77%
    17:00 +1°C° 0.2 mm 4 mps 677 mmHg 78%
    18:00 0°C° 0.2 mm 4 mps 677 mmHg 79%
    19:00 0°C° 0.1 mm 4 mps 677 mmHg 78%
    20:00 +1°C° 0.1 mm 3 mps 677 mmHg 78%
    21:00 +1°C° 0.1 mm 3 mps 677 mmHg 77%
    22:00 +1°C° 0 mm 3 mps 677 mmHg 77%
    23:00 +1°C° 0 mm 3 mps 677 mmHg 77%

    Tomorrow, 19 January, Friday

    Time Temperature Precipitation Wind Pressure Humidity
    00:00 0°C° 0 mm 3 mps 677 mmHg 78%
    01:00 0°C° 0 mm 3 mps 677 mmHg 78%
    02:00 0°C° 0 mm 3 mps 677 mmHg 78%
    03:00 +1°C° 0 mm 2 mps 677 mmHg 78%
    04:00 +1°C° 0 mm 2 mps 677 mmHg 79%
    05:00 +1°C° 0 mm 2 mps 678 mmHg 79%
    06:00 +1°C° 0 mm 2 mps 678 mmHg 79%
    07:00 +1°C° 0 mm 2 mps 678 mmHg 78%
    08:00 +2°C° 0 mm 2 mps 678 mmHg 77%
    09:00 +3°C° 0 mm 2 mps 679 mmHg 77%
    10:00 +4°C° 0 mm 2 mps 679 mmHg 75%
    11:00 +5°C° 0 mm 2 mps 678 mmHg 73%
    12:00 +7°C° 0 mm 2 mps 678 mmHg 72%
    13:00 +7°C° 0 mm 2 mps 678 mmHg 71%
    14:00 +7°C° 0 mm 2 mps 678 mmHg 71%
    15:00 +7°C° 0 mm 2 mps 678 mmHg 70%
    16:00 +6°C° 0 mm 2 mps 679 mmHg 72%
    17:00 +5°C° 0 mm 2 mps 679 mmHg 73%
    18:00 +5°C° 0 mm 1 mps 679 mmHg 74%
    19:00 +4°C° 0 mm 2 mps 680 mmHg 73%
    20:00 +3°C° 0 mm 2 mps 680 mmHg 73%
    21:00 +3°C° 0 mm 2 mps 680 mmHg 73%
    22:00 +3°C° 0 mm 2 mps 680 mmHg 73%
    23:00 +3°C° 0 mm 2 mps 681 mmHg 73%

    Day after tomorrow, 20 January, Saturday

    Time Temperature Precipitation Wind Pressure Humidity
    00:00 +2°C° 0 mm 2 mps 681 mmHg 73%
    01:00 +2°C° 0 mm 2 mps 682 mmHg 74%
    02:00 +2°C° 0 mm 2 mps 682 mmHg 75%
    03:00 +2°C° 0 mm 2 mps 682 mmHg 75%
    04:00 +2°C° 0.1 mm 2 mps 683 mmHg 76%
    05:00 +2°C° 0.1 mm 2 mps 683 mmHg 76%
    06:00 +1°C° 0.1 mm 2 mps 683 mmHg 77%
    07:00 +2°C° 0 mm 2 mps 684 mmHg 75%
    08:00 +2°C° 0 mm 2 mps 684 mmHg 73%
    09:00 +3°C° 0 mm 2 mps 685 mmHg 71%
    10:00 +4°C° 0 mm 2 mps 685 mmHg 70%
    11:00 +5°C° 0 mm 2 mps 685 mmHg 68%
    12:00 +6°C° 0 mm 2 mps 685 mmHg 66%
    13:00 +7°C° 0 mm 1 mps 685 mmHg 66%
    14:00 +7°C° 0 mm 1 mps 685 mmHg 65%
    15:00 +7°C° 0 mm 1 mps 685 mmHg 65%
    16:00 +6°C° 0 mm 1 mps 686 mmHg 66%
    17:00 +4°C° 0 mm 1 mps 686 mmHg 67%
    18:00 +3°C° 0 mm 1 mps 686 mmHg 68%
    19:00 +2°C° 0 mm 1 mps 687 mmHg 67%
    20:00 +2°C° 0 mm 1 mps 687 mmHg 67%
    21:00 +1°C° 0 mm 2 mps 688 mmHg 66%
    22:00 -1°C° 0 mm 2 mps 688 mmHg 66%
    23:00 -1°C° 0 mm 2 mps 688 mmHg 66%

    21 January, Sunday

    Time Temperature Precipitation Wind Pressure Humidity
    00:00 +1°C° 0 mm 1 mps 688 mmHg 66%
    01:00 +1°C° 0 mm 1 mps 688 mmHg 66%
    02:00 +1°C° 0 mm 1 mps 688 mmHg 66%
    03:00 0°C° 0 mm 1 mps 688 mmHg 66%
    04:00 0°C° 0 mm 1 mps 688 mmHg 66%
    05:00 0°C° 0 mm 1 mps 688 mmHg 66%
    06:00 0°C° 0 mm 1 mps 688 mmHg 66%
    07:00 +1°C° 0 mm 1 mps 689 mmHg 64%
    08:00 +2°C° 0 mm 1 mps 689 mmHg 62%
    09:00 +3°C° 0 mm 1 mps 689 mmHg 61%
    10:00 +3°C° 0 mm 2 mps 689 mmHg 60%
    11:00 +4°C° 0 mm 2 mps 688 mmHg 59%
    12:00 +6°C° 0 mm 2 mps 688 mmHg 58%
    13:00 +6°C° 0 mm 2 mps 688 mmHg 57%
    14:00 +6°C° 0 mm 2 mps 687 mmHg 57%
    15:00 +6°C° 0 mm 2 mps 687 mmHg 57%
    16:00 +5°C° 0 mm 2 mps 687 mmHg 57%
    17:00 +4°C° 0 mm 2 mps 687 mmHg 57%
    18:00 +2°C° 0 mm 2 mps 687 mmHg 57%
    19:00 +2°C° 0 mm 2 mps 687 mmHg 56%
    20:00 +2°C° 0 mm 2 mps 687 mmHg 55%
    21:00 +2°C° 0 mm 2 mps 687 mmHg 55%
    22:00 +2°C° 0 mm 2 mps 687 mmHg 54%
    23:00 +2°C° 0 mm 2 mps 687 mmHg 54%

    22 January, Monday

    Time Temperature Precipitation Wind Pressure Humidity
    00:00 +2°C° 0 mm 2 mps 686 mmHg 54%
    01:00 +2°C° 0 mm 2 mps 686 mmHg 54%
    02:00 +2°C° 0 mm 2 mps 686 mmHg 53%
    03:00 +2°C° 0 mm 2 mps 686 mmHg 53%
    04:00 +2°C° 0 mm 2 mps 685 mmHg 53%
    05:00 +2°C° 0 mm 2 mps 685 mmHg 52%
    06:00 +2°C° 0 mm 2 mps 685 mmHg 52%
    07:00 +3°C° 0 mm 2 mps 684 mmHg 52%
    08:00 +3°C° 0 mm 2 mps 684 mmHg 52%
    09:00 +4°C° 0 mm 2 mps 684 mmHg 52%
    10:00 +5°C° 0 mm 2 mps 684 mmHg 51%
    11:00 +6°C° 0 mm 2 mps 684 mmHg 51%
    12:00 +8°C° 0 mm 2 mps 683 mmHg 50%
    13:00 +8°C° 0 mm 2 mps 683 mmHg 50%
    14:00 +8°C° 0 mm 2 mps 682 mmHg 50%
    15:00 +8°C° 0 mm 2 mps 682 mmHg 50%
    16:00 +6°C° 0 mm 2 mps 682 mmHg 49%
    17:00 +5°C° 0 mm 2 mps 682 mmHg 49%
    18:00 +3°C° 0 mm 2 mps 682 mmHg 48%
    19:00 +3°C° 0 mm 2 mps 682 mmHg 49%
    20:00 +2°C° 0 mm 2 mps 683 mmHg 49%
    21:00 +2°C° 0 mm 2 mps 683 mmHg 49%
    22:00 +2°C° 0 mm 2 mps 683 mmHg 50%
    23:00 +2°C° 0 mm 2 mps 683 mmHg 52%

    23 January, Tuesday

    Time Temperature Precipitation Wind Pressure Humidity
    00:00 +1°C° 0 mm 2 mps 683 mmHg 53%
    01:00 +1°C° 0 mm 2 mps 682 mmHg 53%
    02:00 +1°C° 0 mm 2 mps 682 mmHg 54%
    03:00 +1°C° 0 mm 2 mps 682 mmHg 54%
    04:00 +1°C° 0 mm 2 mps 682 mmHg 55%
    05:00 -1°C° 0 mm 2 mps 682 mmHg 55%
    06:00 -1°C° 0 mm 2 mps 682 mmHg 55%
    07:00 +1°C° 0 mm 2 mps 682 mmHg 55%
    08:00 +2°C° 0 mm 2 mps 682 mmHg 55%
    09:00 +3°C° 0 mm 2 mps 683 mmHg 55%
    10:00 +4°C° 0 mm 2 mps 682 mmHg 54%
    11:00 +5°C° 0 mm 2 mps 682 mmHg 53%
    12:00 +6°C° 0 mm 2 mps 681 mmHg 51%
    13:00 +6°C° 0 mm 2 mps 681 mmHg 52%
    14:00 +6°C° 0 mm 2 mps 681 mmHg 52%
    15:00 +7°C° 0 mm 2 mps 681 mmHg 52%
    16:00 +6°C° 0 mm 2 mps 681 mmHg 53%
    17:00 +5°C° 0 mm 2 mps 681 mmHg 54%
    18:00 +4°C° 0 mm 2 mps 681 mmHg 54%
    19:00 +4°C° 0.1 mm 2 mps 681 mmHg 55%
    20:00 +4°C° 0.1 mm 2 mps 682 mmHg 56%
    21:00 +5°C° 0.1 mm 1 mps 682 mmHg 57%
    22:00 +3°C° 0.1 mm 2 mps 682 mmHg 58%
    23:00 +3°C° 0.1 mm 2 mps 682 mmHg 59%
    Show more